Belize, Belize

5:39 PM CST on February 10, 2016 (GMT -0600)
Philip S W Goldson International

Weather History for MZBZ - November, 2012

Change the Weather History Date:

Wednesday, November 7, 2012

  Actual Average Record
Temperature  
Mean Temperature 78 °F -  
Max Temperature 87 °F 84 °F 89 °F (2006)
Min Temperature 69 °F 71 °F 60 °F (2010)
Cooling Degree Days 13    
Growing Degree Days 28 (Base 50)    
Moisture  
Dew Point 68 °F    
Average Humidity 70    
Maximum Humidity 94    
Minimum Humidity 34    
Precipitation  
Precipitation 0.00 in 0.24 in - ()
Sea Level Pressure  
Sea Level Pressure 30.00 in    
Wind  
Wind Speed 5 mph ()    
Max Wind Speed 12 mph    
Max Gust Speed -    
Visibility 8.4 miles    
Events      
Averages and records for this station are not official NWS values.
T = Trace of Precipitation, MM = Missing Value Source: Averaged Metar Reports

Daily Weather History Graph

Daily Weather History Graph

Search for Another Location

Airport or City:

Trip Planner

Search our weather history database for the weather conditions in past years. The results will help you decide how hot, cold, wet, or windy it might be!

Date:

Astronomy

Nov. 07, 2012 Rise Set
Actual Time 5:54 AM CST 5:18 PM CST
Civil Twilight 5:32 AM CST 5:41 PM CST
Nautical Twilight 5:06 AM CST 6:07 PM CST
Astronomical Twilight 4:40 AM CST 6:33 PM CST
Moon No Moon Rise 12:34 PM CST (11/7)
Length of Visible Light 12h 09m
Length of Day
11h 24m
Last Quarter, 43% of the Moon is Illuminated
Nov 7
Last Quarter
Nov 13
New
Nov 20
First Quarter
Nov 28
Full
Dec 6
Last Quarter

Hourly Weather History & Observations

Time (CST) Temp. Heat Index Dew Point Humidity Pressure Visibility Wind Dir Wind Speed Gust Speed Precip Events Conditions
12:00 AM 74 °F - 72 °F 93% 30.01 in 12 mi Calm Calm - -   Mostly Cloudy
3:00 AM 72 °F - 70 °F 91% 30.00 in 12 mi West 4.6 mph - -   Mostly Cloudy
5:00 AM 69.8 °F - 68.0 °F 94% 30.01 in 6.2 mi West 4.6 mph - N/A   Scattered Clouds
6:00 AM 70 °F - 68 °F 92% 30.04 in 12 mi WNW 4.6 mph - -   Scattered Clouds
6:00 AM 69.8 °F - 68.0 °F 94% 30.04 in 6.2 mi WNW 4.6 mph - N/A   Partly Cloudy
7:00 AM 71.6 °F - 69.8 °F 94% 30.04 in 6.2 mi West 4.6 mph - N/A   Partly Cloudy
8:00 AM 75.2 °F - 69.8 °F 83% 30.04 in 6.2 mi WNW 5.8 mph - N/A   Partly Cloudy
9:00 AM 79 °F - 70 °F 67% 30.07 in 12 mi NNW 8.1 mph - -   Scattered Clouds
9:00 AM 87.8 °F 87.6 °F 60.8 °F 40% 29.95 in 6.2 mi NW 11.5 mph - N/A   Partly Cloudy
10:00 AM 82.4 °F 86.3 °F 69.8 °F 66% 30.05 in 6.2 mi NW 8.1 mph - N/A   Partly Cloudy
11:00 AM 82.4 °F 86.3 °F 69.8 °F 66% 30.03 in 6.2 mi WNW 6.9 mph - N/A   Partly Cloudy
12:00 PM 85 °F - 62 °F 37% 30.01 in 12 mi NW 10.4 mph - -   Scattered Clouds
12:00 PM 86.0 °F 86.6 °F 62.6 °F 45% 30.00 in 6.2 mi NW 10.4 mph - N/A   Partly Cloudy
1:00 PM 87.8 °F 89.4 °F 64.4 °F 46% 29.97 in 6.2 mi NNW 10.4 mph - N/A   Partly Cloudy
3:00 PM 87 °F - 63 °F 34% 29.95 in 12 mi NW 8.1 mph - -   Scattered Clouds
3:00 PM 87.8 °F 88.5 °F 62.6 °F 43% 29.95 in 6.2 mi NW 8.1 mph - N/A   Partly Cloudy
4:00 PM 84.2 °F 89.6 °F 71.6 °F 66% 29.95 in 6.2 mi East 6.9 mph - N/A   Partly Cloudy
5:00 PM 80.6 °F 84.6 °F 71.6 °F 74% 29.96 in 6.2 mi ESE 3.5 mph - N/A   Partly Cloudy
6:00 PM 77 °F - 72 °F 81% 29.98 in 12 mi Calm Calm - -   Scattered Clouds
6:00 PM 77.0 °F - 71.6 °F 83% 29.98 in 6.2 mi Calm Calm - N/A   Partly Cloudy
9:00 PM 74 °F - 72 °F 91% 30.05 in 12 mi Calm Calm - -   Scattered Clouds